sat.trackr.live / text

‹ back to catalog

STARLINK-5095

NORAD 56885 · 2023-083K

PAYLOAD ACTIVE UNKNOWN

§ Identity

Operator
Country
US
Launch date
2023-06-12
Launch site
AFETR
Launch vehicle
Mass (kg)
RCS (m²)

Purposes: comms

External: N2YO · Heavens-Above · Gunter

§ Orbital elements

Epoch: 2026-09-19T18:22:52.505472Z

Period
94.27 min
Inclination
43.0033°
Eccentricity
0.0001091
Mean motion
15.27577484 rev/d
Perigee alt
482.3 km
Apogee alt
483.8 km
Semi-major
6,861.2 km
B*
-4.5561e-6
RAAN
69.0022°
Arg perigee
262.0631°
Mean anomaly
98.0097°
Rev number
18,131

§ Raw data

STARLINK-50951 56885U 23083K   26262.76588548 -.00000387  00000+0 -45561-5 0  99922 56885  43.0033  69.0022 0001091 262.0631  98.0097 15.27577484181314

JSON: /api/v1/satellites/56885 · /tle

For live sub-satellite position, see the globe view (requires WebGL).

§ Visibility from observer

Set your observer location to see the next 7 days of passes ≥ 10°. The values pass through the URL so the page stays shareable.

No JS? Fill the form by hand. The geolocation button needs JavaScript.